TimeEDT,TemperatureF,Dew PointF,Humidity,Sea Level PressureIn,VisibilityMPH,Wind Direction,Wind SpeedMPH,Gust SpeedMPH,PrecipitationIn,Events,Conditions,WindDirDegrees,DateUTC
12:54 AM,45.0,37.9,76,30.31,10.0,NE,4.6,-,N/A,,Clear,40,2013-05-25 04:54:00
1:54 AM,43.0,39.9,89,30.31,10.0,Calm,Calm,-,N/A,,Clear,0,2013-05-25 05:54:00
2:54 AM,42.1,37.9,85,30.31,10.0,Calm,Calm,-,N/A,,Clear,0,2013-05-25 06:54:00
3:54 AM,41.0,39.0,93,30.33,10.0,Calm,Calm,-,N/A,,Clear,0,2013-05-25 07:54:00
4:54 AM,39.0,37.0,93,30.34,10.0,Calm,Calm,-,N/A,,Clear,0,2013-05-25 08:54:00
5:54 AM,37.9,36.0,93,30.34,10.0,Calm,Calm,-,N/A,,Clear,0,2013-05-25 09:54:00
6:26 AM,37.4,35.6,93,30.35,5.0,Calm,Calm,-,N/A,,Partly Cloudy,0,2013-05-25 10:26:00
6:54 AM,37.9,36.0,93,30.35,4.0,Calm,Calm,-,N/A,,Scattered Clouds,0,2013-05-25 10:54:00
7:54 AM,41.0,39.0,93,30.36,6.0,Calm,Calm,-,N/A,,Partly Cloudy,0,2013-05-25 11:54:00
8:54 AM,46.0,39.9,79,30.37,10.0,Calm,Calm,-,N/A,,Clear,0,2013-05-25 12:54:00
9:54 AM,50.0,35.1,57,30.39,10.0,Calm,Calm,-,N/A,,Clear,0,2013-05-25 13:54:00
10:54 AM,54.0,37.0,53,30.39,10.0,NNW,6.9,-,N/A,,Partly Cloudy,340,2013-05-25 14:54:00
11:54 AM,57.0,36.0,45,30.37,10.0,NNW,9.2,-,N/A,,Partly Cloudy,330,2013-05-25 15:54:00
12:54 PM,61.0,37.9,42,30.36,10.0,NNW,6.9,-,N/A,,Partly Cloudy,330,2013-05-25 16:54:00
1:54 PM,60.1,37.9,44,30.33,10.0,Variable,3.5,-,N/A,,Partly Cloudy,0,2013-05-25 17:54:00
2:54 PM,61.0,37.0,41,30.31,10.0,NW,4.6,19.6,N/A,,Scattered Clouds,320,2013-05-25 18:54:00
3:54 PM,63.0,37.9,40,30.30,10.0,NNW,15.0,-,N/A,,Partly Cloudy,330,2013-05-25 19:54:00
4:54 PM,63.0,37.9,40,30.28,10.0,NW,10.4,-,N/A,,Partly Cloudy,320,2013-05-25 20:54:00
5:54 PM,63.0,39.0,41,30.28,10.0,NW,8.1,-,N/A,,Scattered Clouds,310,2013-05-25 21:54:00
6:54 PM,62.1,39.0,43,30.27,10.0,North,4.6,-,N/A,,Partly Cloudy,350,2013-05-25 22:54:00
7:54 PM,62.1,41.0,46,30.26,10.0,Calm,Calm,-,N/A,,Partly Cloudy,0,2013-05-25 23:54:00
8:54 PM,55.0,45.0,69,30.25,10.0,Calm,Calm,-,N/A,,Scattered Clouds,0,2013-05-26 00:54:00
9:54 PM,53.1,45.0,74,30.25,10.0,Calm,Calm,-,N/A,,Scattered Clouds,0,2013-05-26 01:54:00
10:54 PM,50.0,45.0,83,30.26,10.0,Calm,Calm,-,N/A,,Partly Cloudy,0,2013-05-26 02:54:00
11:54 PM,48.9,44.1,83,30.27,10.0,Calm,Calm,-,N/A,,Partly Cloudy,0,2013-05-26 03:54:00